Zurück zum Katalog

CONNECTA IOT-5

AktivKommunikationSSO
NORAD 62703·PAYLOAD·🇹🇷 Turkey

Gestartet Jan 14, 2025 von Vandenberg Space Force Base

Loading…

Nächste Überflüge (nächste 24 Stunden)

TLE

AktuellSource: Space-Track

Epoche: Sep 14, 2026, 22:47 UTC

1 62703U 25009CY  26257.94992882  .00000946  00000-0  93202-4 0  9996
2 62703  97.6964 334.8111 0003679 112.4603 247.7008 14.94340014 90775

Verfolge CONNECTA IOT-5 in Echtzeit mit AllMySat

Download on the App Store